Location: Melita
(38.4566°N, 122.6369°W)
Time: 09:44:54
(UTC+00:00)

Cosmos 2058 Rocket - Pass Details

Date: 24 January 2020
Orbit: 610 x 639 km, 82.5° (Epoch: 18 February)

Event Time Altitude Azimuth Distance (km) Brightness Sun altitude
Rises 14:14:01 0° 203° (SSW) 2,888 6.4 -13.4°
Reaches altitude 10° 14:16:22 10° 211° (SSW) 1,981 5.5 -13.0°
Maximum altitude 14:20:29 40° 281° (WNW) 921 3.4 -12.2°
Drops below altitude 10° 14:24:37 10° 352° (N) 1,981 5.4 -11.4°
Sets 14:26:57 0° 360° (N) 2,887 6.3 -11.0°
